Vertical_Velocity
-1 -1 -1 -3 -3 1 3 2 2 1 -1 -1 -2 -2 -2 -1 -3 -3 -2 -1 -3 -2 -2 -4 -3 -4 -5 -3 -5 -2 -4 -5
-1 1 0 0 1 0 4 3 1 1 -0 -1 -1 -0 0 -0 -4 -3 -4 -4 -3 -3 -3 -3 -3 -5 -5 -4 -4 -4 -4 -5
4 1 -2 -1 0 2 3 3 0 -0 0 -0 0 -0 -2 -1 -4 -1 -3 -4 -5 -3 -3 -3 -1 -4 -1 -4 -4 -7 -4 -5
2 0 -4 -2 -3 0 0 2 3 -0 1 -0 -1 -1 -0 -0 -2 1 -1 1 -2 -2 -1 -3 -2 -3 -5 -3 -4 -2 -4 -4
3 -1 -1 -7 -3 1 0 2 4 0 3 0 -0 0 -1 -2 -2 -2 -2 -1 -2 -2 -2 -0 -1 -1 -2 -3 -2 -4 -1 -2
-7 -4 -3 -4 -3 -4 -2 -1 1 -1 -1 -2 -1 -0 -2 -3 -1 -2 1 1 -2 -2 -2 0 2 -0 3 0 -3 -2 -2 0
5 2 2 -1 -1 -2 -1 -2 -1 0 -1 -1 -0 -2 -2 -2 -1 -1 -2 -2 -0 -2 -2 0 2 -0 -2 -3 -3 0 2 1
-2 -2 -0 0 -5 -3 -1 -2 -0 -1 -0 1 1 -1 -0 -3 -1 -1 0 -1 -1 -4 -3 -1 -1 2 0 -1 -4 1 1 -1
-0 -1 -1 -1 -3 0 -1 -1 -1 -3 -1 1 -0 -1 -2 -1 -2 -2 -3 -2 -2 -2 -2 -3 -2 -5 0 0 -3 0 -2 -3
0 7 0 -0 -1 -4 -4 1 -1 1 -1 -0 -1 -2 -1 -2 -2 -2 -2 -2 1 -4 -3 -2 1 1 -2 2 -0 -2 -4 -1
3 -0 -0 1 2 -1 -1 -0 -4 -2 -0 -2 -0 1 -1 -2 -2 1 -1 -1 -1 -2 -2 -3 -2 1 -1 -3 -1 -4 -3 -1
-0 3 6 3 2 -2 -3 -1 -3 -3 -2 1 -0 -1 -2 -4 1 -3 -2 -1 -4 -0 0 0 -1 -0 -3 -2 -1 -4 -2 -3
2 -0 -2 2 2 1 -2 -1 -1 -3 -4 -2 -0 -1 0 0 1 1 3 -2 -4 -2 2 1 -5 2 -4 -3 -2 -2 -2 -3
4 3 -1 -2 1 0 0 1 -1 -2 -2 -2 -0 1 -1 -1 0 -1 -1 -4 -1 -0 -3 -1 -3 -1 -6 -2 -1 -1 -1 -1
1 5 2 3 2 -1 -1 2 -4 -2 -4 -2 -0 -1 -1 1 0 0 -4 -1 -4 0 1 1 2 -5 -2 -0 -3 -1 -1 -1
1 1 5 4 1 3 4 -3 -3 -4 -3 0 -1 1 1 1 0 -4 1 0 -3 -0 -1 4 1 -4 -0 -0 -3 -1 -2 -3
2 7 2 2 1 1 -2 -1 -0 -1 -4 -1 -2 3 0 1 0 2 0 -2 -1 -1 2 2 -0 -1 0 1 -0 -0 -3 -0
-11 -5 -0 -2 -3 -3 -0 0 -1 -3 -4 -1 -0 0 2 -2 -0 2 -2 0 -1 -1 2 -0 -2 1 -1 1 -3 -2 -4 -1
15 4 -3 -0 2 1 -1 -1 1 -1 -2 -1 -1 1 -0 1 1 -2 -1 0 -0 1 1 1 4 4 -1 -0 -5 -2 -3 -2
Height
1509 1513 1513 1514 1516 1519 1520 1521 1523 1523 1524 1525 1525 1525 1525 1525 1524 1524 1523 1522 1520 1519 1516 1514 1512 1508 1506 1503 1500 1498 1493 1489
1505 1508 1510 1512 1514 1516 1518 1518 1519 1521 1522 1523 1524 1525 1524 1524 1523 1522 1521 1520 1519 1517 1515 1512 1510 1506 1504 1501 1499 1495 1491 1486
1500 1504 1508 1512 1514 1514 1516 1516 1517 1518 1520 1521 1522 1523 1523 1523 1522 1522 1520 1518 1516 1514 1512 1510 1508 1505 1502 1498 1496 1492 1490 1487
1494 1498 1503 1508 1511 1513 1513 1515 1515 1516 1517 1519 1520 1520 1521 1522 1522 1521 1519 1517 1515 1514 1512 1509 1507 1504 1502 1498 1495 1493 1489 1490
1486 1491 1496 1502 1508 1511 1512 1513 1514 1514 1516 1517 1518 1519 1520 1520 1520 1519 1518 1516 1514 1513 1511 1508 1506 1502 1498 1495 1492 1491 1491 1489
1477 1483 1489 1496 1502 1506 1509 1510 1511 1512 1514 1515 1516 1517 1518 1518 1518 1517 1517 1515 1512 1510 1507 1507 1505 1502 1499 1495 1492 1490 1490 1489
1471 1478 1485 1489 1497 1501 1505 1507 1508 1510 1511 1512 1513 1514 1515 1514 1514 1514 1513 1512 1510 1509 1506 1505 1503 1499 1496 1495 1493 1492 1489 1487
1464 1471 1477 1483 1489 1494 1499 1502 1505 1506 1508 1510 1510 1512 1512 1511 1511 1511 1510 1509 1507 1506 1504 1502 1501 1497 1493 1491 1490 1490 1487 1485
1456 1463 1468 1476 1483 1490 1495 1498 1502 1504 1506 1507 1508 1509 1509 1509 1509 1508 1507 1505 1505 1503 1501 1501 1499 1496 1495 1489 1487 1486 1484 1481
1450 1459 1464 1472 1480 1487 1493 1496 1500 1502 1503 1504 1505 1505 1506 1507 1506 1505 1504 1503 1503 1500 1500 1497 1494 1491 1489 1487 1484 1483 1480 1478
1450 1456 1461 1469 1476 1483 1489 1493 1497 1500 1501 1501 1502 1502 1502 1503 1503 1502 1501 1500 1498 1498 1497 1494 1494 1489 1485 1483 1482 1480 1478 1475
1447 1453 1460 1466 1471 1477 1484 1488 1492 1495 1499 1499 1499 1500 1500 1500 1501 1499 1499 1497 1496 1495 1493 1491 1489 1484 1482 1481 1479 1478 1475 1471
1445 1451 1456 1462 1468 1473 1478 1483 1488 1491 1495 1498 1498 1497 1497 1498 1498 1497 1496 1494 1495 1495 1492 1488 1487 1483 1479 1479 1477 1476 1472 1466
1442 1447 1452 1457 1464 1469 1474 1478 1483 1488 1491 1495 1496 1496 1495 1496 1495 1494 1493 1491 1492 1491 1490 1486 1485 1481 1478 1477 1475 1473 1468 1463
1436 1443 1447 1452 1459 1465 1471 1474 1480 1484 1488 1492 1493 1494 1493 1494 1492 1493 1491 1489 1491 1491 1488 1485 1482 1479 1477 1475 1472 1469 1464 1459
1431 1436 1441 1447 1454 1460 1464 1472 1477 1481 1485 1488 1490 1491 1490 1491 1490 1490 1489 1488 1487 1489 1487 1484 1479 1477 1475 1471 1468 1464 1460 1454
1428 1431 1436 1442 1447 1454 1461 1468 1473 1476 1481 1485 1487 1488 1488 1489 1487 1487 1486 1486 1485 1486 1485 1482 1478 1475 1472 1468 1464 1460 1456 1451
1420 1423 1431 1438 1444 1451 1458 1464 1468 1473 1477 1481 1483 1483 1483 1484 1485 1485 1484 1483 1483 1484 1482 1480 1476 1472 1469 1465 1460 1456 1452 1447
1413 1418 1427 1435 1442 1448 1454 1460 1466 1470 1476 1478 1479 1480 1481 1481 1480 1480 1482 1481 1480 1481 1479 1477 1475 1470 1465 1462 1456 1452 1447 1443